Weather History for KVCB - December, 2012

Change the Weather History Date:

Saturday, December 8, 2012

  Actual Average Record
Temperature  
Mean Temperature 46 °F -  
Max Temperature 57 °F 57 °F 69 °F (1979)
Min Temperature 35 °F 38 °F 23 °F (1978)
Degree Days  
Heating Degree Days 19    
Moisture  
Dew Point 40 °F    
Average Humidity 82    
Maximum Humidity 100    
Minimum Humidity 49    
Precipitation  
Precipitation 0.00 in - - ()
Sea Level Pressure  
Sea Level Pressure 30.09 in    
Wind  
Wind Speed 1 mph (SW)    
Max Wind Speed 4 mph    
Max Gust Speed -    
Visibility 10 miles    
Events      
Averages and records for this station are not official NWS values.
T = Trace of Precipitation, MM = Missing Value Source: NWS Daily Summary

Daily Weather History Graph

Daily Weather History Graph

Search for Another Location

Airport or City:

Trip Planner

Search our weather history database for the weather conditions in past years. The results will help you decide how hot, cold, wet, or windy it might be!

Date:

Astronomy

Dec. 08, 2012 Rise Set
Actual Time 7:12 AM PST 4:47 PM PST
Civil Twilight 6:43 AM PST 5:16 PM PST
Nautical Twilight 6:10 AM PST 5:49 PM PST
Astronomical Twilight 5:38 AM PST 6:21 PM PST
Moon 1:46 AM PST (12/8) 1:17 PM PST (12/8)
Length of Visible Light 10h 33m
Length of Day
9h 34m
Waning Crescent, 27% of the Moon is Illuminated
Dec 8
Waning Crescent
Dec 13
New
Dec 19
First Quarter
Dec 28
Full
Jan 4
Last Quarter

Hourly Weather History & Observations

Time (PST) Temp. Dew Point Humidity Pressure Visibility Wind Dir Wind Speed Gust Speed Precip Events Conditions
12:53 AM 41.0 °F 39.0 °F 93% 30.10 in 8.0 mi Calm Calm - N/A   Clear
1:53 AM 37.9 °F 37.9 °F 100% 30.10 in 9.0 mi Calm Calm - N/A   Clear
2:53 AM 37.9 °F 37.0 °F 97% 30.09 in 10.0 mi Calm Calm - N/A   Clear
3:53 AM 36.0 °F 36.0 °F 100% 30.09 in 10.0 mi Calm Calm - N/A   Clear
4:53 AM 37.9 °F 37.9 °F 100% 30.09 in 10.0 mi Calm Calm - N/A   Clear
5:53 AM 37.9 °F 37.0 °F 97% 30.09 in 10.0 mi Calm Calm - N/A   Clear
6:53 AM 35.1 °F 35.1 °F 100% 30.10 in 9.0 mi Calm Calm - N/A   Clear
7:53 AM 39.0 °F 39.0 °F 100% 30.10 in 10.0 mi Calm Calm - N/A   Clear
8:53 AM 46.0 °F 41.0 °F 83% 30.12 in 10.0 mi Calm Calm - N/A   Clear
9:53 AM 52.0 °F 39.9 °F 63% 30.13 in 10.0 mi Variable 3.5 mph - N/A   Clear
10:53 AM 55.0 °F 39.0 °F 55% 30.13 in 10.0 mi Variable 3.5 mph - N/A   Clear
11:53 AM 55.9 °F 37.9 °F 51% 30.10 in 10.0 mi Calm Calm - N/A   Clear
12:53 PM 57.0 °F 37.9 °F 49% 30.07 in 10.0 mi Calm Calm - N/A   Clear
1:53 PM 57.9 °F 42.1 °F 56% 30.05 in 10.0 mi Variable 3.5 mph - N/A   Clear
2:53 PM 57.0 °F 43.0 °F 59% 30.05 in 10.0 mi SSW 3.5 mph - N/A   Clear
3:53 PM 55.0 °F 44.1 °F 67% 30.06 in 10.0 mi SW 3.5 mph - N/A   Clear
5:53 PM 50.0 °F 44.1 °F 80% 30.06 in 9.0 mi Calm Calm - N/A   Clear
6:53 PM 46.0 °F 43.0 °F 89% 30.07 in 10.0 mi Calm Calm - N/A   Clear
7:53 PM 43.0 °F 42.1 °F 97% 30.07 in 9.0 mi Calm Calm - N/A   Clear
8:53 PM 45.0 °F 42.1 °F 90% 30.07 in 9.0 mi Calm Calm - N/A   Clear
9:53 PM 42.1 °F 39.9 °F 92% 30.08 in 9.0 mi Calm Calm - N/A   Clear
10:53 PM 42.1 °F 39.0 °F 89% 30.09 in 9.0 mi Calm Calm - N/A   Clear
11:53 PM 45.0 °F 37.9 °F 76% 30.10 in 10.0 mi Calm Calm - N/A   Clear